Regional Weather Roundup
Issued by NWS Jackson, KY

Home | Current Version | Previous Version | Text Only | Print | Product List | Glossary On
Versions: 1 2 3 4 5 6 7 8 9 10 11 12 13 14 15 16 17 18 19 20 21 22 23 24 25 26 27 28 29 30 31 32 33 34 35 36 37 38 39 40 41 42 43 44 45 46 47 48 49 50
000
ASUS43 KJKL 250910
RWRJKL

EAST KENTUCKY HOURLY WEATHER ROUNDUP
NATIONAL WEATHER SERVICE JACKSON KY
400 AM EST SAT FEB 25 2017

NOTE: "FAIR" INDICATES FEW OR NO CLOUDS BELOW 12,000 FEET WITH
NO SIGNIFICANT WEATHER AND/OR OBSTRUCTIONS TO VISIBILITY.

* THESE REPORTS ARE NOT UNDER NWS QUALITY CONTROL AND MAY NOT
  REPORT WEATHER SUCH AS PRECIPITATION AND FOG.

KYZ079-080-083-085-087-088-110-112-115-119-120-251000
...EASTERN KENTUCKY...

CITY           SKY/WX    TMP DP  RH WIND       PRES   REMARKS
JACKSON        RAIN      47  43  86 NW10G22   29.68R
LONDON         LGT RAIN  47  45  93 N6        29.70
SOMERSET*      DRIZZLE   46  43  87 W6        29.74R
MONTICELLO*    CLOUDY    49  43  80 W7        29.76R
WILLIAMSBURG*  CLOUDY    46  46 100 W6        29.70R
MIDDLESBORO*   RAIN      58  55  89 SW5       29.66F
HARLAN APT*    CLOUDY    55  52  88 S6        29.67F
PIKE CO APT*   HVY RAIN  55  55 100 SW3       29.65S
BIG SANDY APT* RAIN      56  56  99 SW8       29.64S
MOREHEAD APT*  RAIN      48  45  87 SW6       29.68S
$$

KYZ035-036-041-042-044-050-067-078-099-251000
...CENTRAL KENTUCKY...

CITY           SKY/WX    TMP DP  RH WIND       PRES   REMARKS
FLEMING/MASON* CLOUDY    48  43  81 W9        29.67R
DANVILLE*      CLOUDY    48  41  76 NW9       29.72S
LEXINGTON      CLOUDY    50  41  71 W12       29.69R
FRANKFORT      CLOUDY    48  29  47 W16G25    29.70R
LOUISVILLE     PTCLDY    45  28  51 W15G21    29.74R
LEBANON*         N/A     48  36  61 W10G17    29.74R
GLASGOW*       CLOUDY    48  40  73 NW7       29.77R
BOWLING GREEN  CLEAR     48  33  56 NW8       29.79R
$$

KYZ091>093-OHZ055-061-077-WVZ005-015-034-035-042-251000
...SOUTHERN OHIO/WEST VIRGINIA...

CITY           SKY/WX    TMP DP  RH WIND       PRES   REMARKS
COVINGTON      CLOUDY    44  34  67 NW10      29.66S
COLUMBUS       CLOUDY    49  41  74 NW10      29.62R
DAYTON         CLOUDY    42  34  73 W16       29.63S
WILMINGTON     PTCLDY    46  37  71 W10       29.62S
HUNTINGTON     TSTM      51  44  77 NW15G32   29.64R
CHARLESTON     RAIN      60  53  77 W8        29.61S
PINEVILLE*     MOCLDY    54  48  79 MISG      29.67F
BECKLEY        PTCLDY    57  48  72 S10G20    29.66F
BLUEFIELD      PTCLDY    57  47  69 S9        29.70F
LOGAN CO APT*  TSTM      61  54  77 W10       29.63R
$$

VAZ002-007-008-TNZ017-027-036-066-071-251000
...SOUTHWEST VIRGINIA/EAST TENNESSEE...

CITY           SKY/WX    TMP DP  RH WIND       PRES   REMARKS
WISE*          CLOUDY    59  50  72 CALM      29.67F
JONESVILLE*    LGT RAIN  57  55  94 NW6       29.65F
ABINGDON*      MOCLDY    64  49  57 SW6       29.66F
BRISTOL        CLOUDY    65  50  58 S6        29.63F THUNDER
MORRISTOWN*    CLOUDY    64  54  68 W33G46    29.67R
SEVIERVILLE*   PTSUNNY   64  52  63 W25G39    29.66R
KNOXVILLE      LGT RAIN  57  54  89 SW14      29.69S
LAFOLLETTE*    PTSUNNY   57  55  94 CALM      29.71S FOG
OAK RIDGE      LGT RAIN  58  55  90 W5        29.69S
CROSSVILLE     CLOUDY    53  49  86 W14       29.74R
NASHVILLE      PTCLDY    52  25  35 NW14G22   29.81R
$$

...KEY TO REMARKS...
VSB - VISIBILITY IN MILES
WCI - WIND CHILL INDEX
HX  - HEAT INDEX

$$



USA.gov is the U.S. government's official web portal to all federal, state and local government web resources and services.